Location: 22
(39.7117°N, 89.5929°W)
Time: 23:49:21
(UTC-06:00)

Tiros 1 despin weight - Visible Passes

Search period start: 05 February 2023 00:00
Search period end: 15 February 2023 00:00
Orbit: 589 x 636 km, 48.2° (Epoch: 05 February)

Date Brightness Start Highest point End Pass type
(mag) Time Alt. Az. Time Alt. Az. Time Alt. Az.
05 Feb ? 17:48:42 10° WNW 17:52:38 27° N 17:56:30 10° ENE visible
05 Feb ? 19:30:39 10° NW 19:33:56 34° NNW 19:33:56 34° NNW visible
06 Feb ? 18:03:46 10° NW 18:07:42 28° N 18:11:15 12° ENE visible
06 Feb ? 19:45:22 10° NW 19:48:12 35° NW 19:48:12 35° NW visible
07 Feb ? 18:18:39 10° NW 18:22:46 32° NNE 18:25:34 17° ENE visible
07 Feb ? 20:00:05 10° WNW 20:02:31 31° WNW 20:02:31 31° WNW visible
08 Feb ? 18:33:25 10° NW 18:37:45 42° NNE 18:39:58 24° ENE visible
08 Feb ? 20:14:54 10° WNW 20:16:55 25° WNW 20:16:55 25° WNW visible
09 Feb ? 18:48:06 10° NW 18:52:37 63° NNE 18:54:27 33° E visible
09 Feb ? 20:30:01 10° WNW 20:31:25 17° W 20:31:25 17° W visible
10 Feb ? 19:02:50 10° WNW 19:07:22 78° SW 19:09:03 37° SE visible
10 Feb ? 20:45:51 10° W 20:46:02 11° W 20:46:02 11° W visible
11 Feb ? 19:17:42 10° WNW 19:21:58 42° SW 19:23:49 27° SSE visible
12 Feb ? 17:50:48 10° WNW 17:55:21 74° NNE 17:59:51 10° ESE visible
12 Feb ? 19:32:54 10° W 19:36:26 23° SW 19:38:47 15° S visible
13 Feb ? 18:05:32 10° WNW 18:10:03 66° SW 18:14:29 10° SE visible
13 Feb ? 19:49:22 10° WSW 19:50:47 11° SW 19:52:11 10° SSW visible
14 Feb ? 18:20:27 10° WNW 18:24:36 35° SW 18:28:41 10° SSE visible
